Time,TemperatureF,DewpointF,PressureIn,WindDirection,WindDirectionDegrees,WindSpeedMPH,WindSpeedGustMPH,Humidity,HourlyPrecipIn,Conditions,Clouds,dailyrainin,SoftwareType,DateUTC
2013-04-26 00:02:00,50.1,50.1,30.11,WSW,253,0.0,0.0,100,0.00,,,0.00,Wunderground v.1.15,2013-04-26 07:02:00,
2013-04-26 00:07:00,49.9,49.9,30.11,SW,230,0.0,0.0,100,0.00,,,0.00,Wunderground v.1.15,2013-04-26 07:07:00,
2013-04-26 00:12:00,49.8,49.8,30.11,West,270,0.0,0.0,100,0.00,,,0.00,Wunderground v.1.15,2013-04-26 07:12:00,
2013-04-26 00:22:00,49.6,49.6,30.12,SW,230,0.0,0.0,100,0.00,,,0.00,Wunderground v.1.15,2013-04-26 07:22:00,
2013-04-26 00:27:00,49.5,49.5,30.12,West,261,0.0,0.0,100,0.00,,,0.00,Wunderground v.1.15,2013-04-26 07:27:00,
2013-04-26 00:37:00,49.4,49.4,30.12,WSW,256,0.0,0.0,100,0.00,,,0.00,Wunderground v.1.15,2013-04-26 07:37:00,
2013-04-26 00:47:00,49.2,49.2,30.12,WSW,254,0.0,0.0,100,0.00,,,0.00,Wunderground v.1.15,2013-04-26 07:47:00,
2013-04-26 00:52:00,49.1,49.1,30.12,WSW,254,0.0,0.0,100,0.00,,,0.00,Wunderground v.1.15,2013-04-26 07:52:00,
2013-04-26 01:02:00,49.1,49.1,30.13,WSW,254,0.0,0.0,100,0.00,,,0.00,Wunderground v.1.15,2013-04-26 08:02:00,
2013-04-26 01:07:00,48.9,48.9,30.13,WSW,254,0.0,0.0,100,0.00,,,0.00,Wunderground v.1.15,2013-04-26 08:07:00,
2013-04-26 01:12:00,48.9,48.9,30.13,WSW,254,0.0,0.0,100,0.00,,,0.00,Wunderground v.1.15,2013-04-26 08:12:00,
2013-04-26 01:22:00,48.8,48.8,30.13,WSW,254,0.0,0.0,100,0.00,,,0.00,Wunderground v.1.15,2013-04-26 08:22:00,
2013-04-26 01:32:00,48.9,48.9,30.12,WSW,254,0.0,0.0,100,0.00,,,0.00,Wunderground v.1.15,2013-04-26 08:32:00,
2013-04-26 01:37:00,48.9,48.9,30.12,WSW,254,0.0,0.0,100,0.00,,,0.00,Wunderground v.1.15,2013-04-26 08:37:00,
2013-04-26 01:47:00,48.9,48.9,30.13,West,275,0.0,0.0,100,0.00,,,0.00,Wunderground v.1.15,2013-04-26 08:47:00,
2013-04-26 01:52:00,48.8,48.8,30.13,WSW,251,0.0,7.0,100,0.00,,,0.00,Wunderground v.1.15,2013-04-26 08:52:00,
2013-04-26 02:02:00,48.8,48.8,30.13,WNW,295,3.0,3.0,100,0.00,,,0.00,Wunderground v.1.15,2013-04-26 09:02:00,
2013-04-26 02:12:00,48.8,48.8,30.13,WNW,298,0.0,0.0,100,0.00,,,0.00,Wunderground v.1.15,2013-04-26 09:12:00,
2013-04-26 02:22:00,48.6,48.6,30.13,WNW,288,0.0,0.0,100,0.00,,,0.00,Wunderground v.1.15,2013-04-26 09:22:00,
2013-04-26 02:32:00,48.3,48.3,30.14,West,260,0.0,0.0,100,0.00,,,0.00,Wunderground v.1.15,2013-04-26 09:32:00,
2013-04-26 02:37:00,48.5,48.5,30.14,West,267,0.0,0.0,100,0.00,,,0.00,Wunderground v.1.15,2013-04-26 09:37:00,
2013-04-26 02:47:00,48.3,48.3,30.14,WSW,247,0.0,0.0,100,0.00,,,0.00,Wunderground v.1.15,2013-04-26 09:47:00,
2013-04-26 02:52:00,48.3,48.3,30.14,West,274,0.0,0.0,100,0.00,,,0.00,Wunderground v.1.15,2013-04-26 09:52:00,
2013-04-26 03:02:00,48.2,48.2,30.14,WNW,302,0.0,12.0,100,0.00,,,0.00,Wunderground v.1.15,2013-04-26 10:02:00,
2013-04-26 03:07:00,48.0,48.0,30.14,NW,311,0.0,12.0,100,0.00,,,0.00,Wunderground v.1.15,2013-04-26 10:07:00,
2013-04-26 03:17:00,48.0,48.0,30.14,WNW,284,0.0,0.0,100,0.00,,,0.00,Wunderground v.1.15,2013-04-26 10:17:00,
2013-04-26 03:27:00,48.0,48.0,30.14,West,280,0.0,0.0,100,0.00,,,0.00,Wunderground v.1.15,2013-04-26 10:27:00,
2013-04-26 03:32:00,48.0,48.0,30.14,West,280,0.0,0.0,100,0.00,,,0.00,Wunderground v.1.15,2013-04-26 10:32:00,
2013-04-26 03:42:00,48.2,48.2,30.14,WNW,284,0.0,0.0,100,0.00,,,0.00,Wunderground v.1.15,2013-04-26 10:42:00,
2013-04-26 03:52:00,48.2,48.2,30.14,WNW,284,0.0,0.0,100,0.00,,,0.00,Wunderground v.1.15,2013-04-26 10:52:00,
2013-04-26 03:57:00,48.2,48.2,30.14,WNW,284,0.0,0.0,100,0.00,,,0.00,Wunderground v.1.15,2013-04-26 10:57:00,
2013-04-26 04:07:00,47.9,47.9,30.14,West,277,0.0,0.0,100,0.00,,,0.00,Wunderground v.1.15,2013-04-26 11:07:00,
2013-04-26 04:12:00,47.9,47.9,30.14,West,277,0.0,0.0,100,0.00,,,0.00,Wunderground v.1.15,2013-04-26 11:12:00,
2013-04-26 04:22:00,47.6,47.6,30.14,West,274,0.0,0.0,100,0.00,,,0.00,Wunderground v.1.15,2013-04-26 11:22:00,
2013-04-26 04:27:00,47.6,47.6,30.14,West,274,0.0,0.0,100,0.00,,,0.00,Wunderground v.1.15,2013-04-26 11:27:00,
2013-04-26 04:37:00,47.7,47.7,30.15,West,274,0.0,0.0,100,0.00,,,0.00,Wunderground v.1.15,2013-04-26 11:37:00,
2013-04-26 04:47:00,47.9,47.9,30.15,West,278,0.0,0.0,100,0.00,,,0.00,Wunderground v.1.15,2013-04-26 11:47:00,
2013-04-26 04:52:00,47.7,47.7,30.15,West,278,0.0,0.0,100,0.00,,,0.00,Wunderground v.1.15,2013-04-26 11:52:00,
2013-04-26 05:02:00,47.4,47.4,30.15,WSW,256,0.0,0.0,100,0.00,,,0.00,Wunderground v.1.15,2013-04-26 12:02:00,
2013-04-26 05:07:00,47.3,47.3,30.15,WSW,257,0.0,0.0,100,0.00,,,0.00,Wunderground v.1.15,2013-04-26 12:07:00,
2013-04-26 05:17:00,47.1,47.1,30.15,WSW,256,0.0,0.0,100,0.00,,,0.00,Wunderground v.1.15,2013-04-26 12:17:00,
2013-04-26 05:27:00,47.4,47.4,30.15,WSW,257,0.0,0.0,100,0.00,,,0.00,Wunderground v.1.15,2013-04-26 12:27:00,
2013-04-26 05:32:00,47.4,47.4,30.15,WSW,257,0.0,0.0,100,0.00,,,0.00,Wunderground v.1.15,2013-04-26 12:32:00,
2013-04-26 05:42:00,47.6,47.6,30.15,West,270,0.0,0.0,100,0.00,,,0.00,Wunderground v.1.15,2013-04-26 12:42:00,
2013-04-26 05:47:00,47.4,47.4,30.16,West,270,0.0,0.0,100,0.00,,,0.00,Wunderground v.1.15,2013-04-26 12:47:00,
2013-04-26 05:57:00,47.4,47.4,30.16,West,270,0.0,0.0,100,0.00,,,0.00,Wunderground v.1.15,2013-04-26 12:57:00,
2013-04-26 06:07:00,47.4,47.4,30.15,West,271,0.0,0.0,100,0.00,,,0.00,Wunderground v.1.15,2013-04-26 13:07:00,
2013-04-26 06:12:00,47.4,47.4,30.15,West,271,0.0,0.0,100,0.00,,,0.00,Wunderground v.1.15,2013-04-26 13:12:00,
2013-04-26 06:22:00,47.4,47.4,30.16,West,271,0.0,0.0,100,0.00,,,0.00,Wunderground v.1.15,2013-04-26 13:22:00,
2013-04-26 06:27:00,47.4,47.4,30.16,West,271,0.0,0.0,100,0.00,,,0.00,Wunderground v.1.15,2013-04-26 13:27:00,
2013-04-26 06:37:00,47.4,47.4,30.16,West,271,0.0,0.0,100,0.00,,,0.00,Wunderground v.1.15,2013-04-26 13:37:00,
2013-04-26 06:47:00,47.4,47.4,30.16,West,271,0.0,0.0,100,0.00,,,0.00,Wunderground v.1.15,2013-04-26 13:47:00,
2013-04-26 06:52:00,47.4,47.4,30.16,West,271,0.0,0.0,100,0.00,,,0.00,Wunderground v.1.15,2013-04-26 13:52:00,
2013-04-26 07:02:00,47.4,47.4,30.16,West,271,0.0,0.0,100,0.00,,,0.00,Wunderground v.1.15,2013-04-26 14:02:00,
2013-04-26 07:07:00,47.6,47.6,30.16,West,271,0.0,0.0,100,0.00,,,0.00,Wunderground v.1.15,2013-04-26 14:07:00,
2013-04-26 07:17:00,47.6,47.6,30.17,West,271,0.0,0.0,100,0.00,,,0.00,Wunderground v.1.15,2013-04-26 14:17:00,
2013-04-26 07:27:00,47.6,47.6,30.17,West,271,0.0,0.0,100,0.00,,,0.00,Wunderground v.1.15,2013-04-26 14:27:00,
2013-04-26 07:32:00,47.6,47.6,30.17,NNW,339,0.0,0.0,100,0.00,,,0.00,Wunderground v.1.15,2013-04-26 14:32:00,
2013-04-26 07:42:00,47.4,47.4,30.17,NNW,339,0.0,0.0,100,0.00,,,0.00,Wunderground v.1.15,2013-04-26 14:42:00,
2013-04-26 07:52:00,47.4,47.4,30.18,NW,320,0.0,0.0,100,0.00,,,0.00,Wunderground v.1.15,2013-04-26 14:52:00,
2013-04-26 08:02:00,47.6,47.6,30.18,NW,320,0.0,0.0,100,0.00,,,0.00,Wunderground v.1.15,2013-04-26 15:02:00,
2013-04-26 08:07:00,47.7,47.7,30.18,NNW,340,0.0,0.0,100,0.00,,,0.00,Wunderground v.1.15,2013-04-26 15:07:00,
2013-04-26 08:12:00,47.9,47.9,30.18,NNE,17,0.0,0.0,100,0.00,,,0.00,Wunderground v.1.15,2013-04-26 15:12:00,
2013-04-26 08:22:00,47.7,47.7,30.18,NNE,17,0.0,0.0,100,0.00,,,0.00,Wunderground v.1.15,2013-04-26 15:22:00,
2013-04-26 08:32:00,47.9,47.9,30.18,NNE,14,0.0,0.0,100,0.00,,,0.00,Wunderground v.1.15,2013-04-26 15:32:00,
2013-04-26 08:42:00,48.3,48.3,30.18,NNE,14,0.0,0.0,100,0.00,,,0.00,Wunderground v.1.15,2013-04-26 15:42:00,
2013-04-26 08:47:00,48.2,48.2,30.19,NNE,14,0.0,0.0,100,0.00,,,0.00,Wunderground v.1.15,2013-04-26 15:47:00,
2013-04-26 08:57:00,47.7,47.7,30.19,ENE,64,0.0,0.0,100,0.00,,,0.00,Wunderground v.1.15,2013-04-26 15:57:00,
2013-04-26 09:07:00,47.9,47.9,30.19,NE,52,0.0,0.0,100,0.00,,,0.00,Wunderground v.1.15,2013-04-26 16:07:00,
2013-04-26 09:12:00,47.7,47.7,30.19,NE,49,0.0,0.0,100,0.00,,,0.00,Wunderground v.1.15,2013-04-26 16:12:00,
2013-04-26 09:22:00,48.2,48.2,30.19,NE,49,0.0,0.0,100,0.00,,,0.00,Wunderground v.1.15,2013-04-26 16:22:00,
2013-04-26 09:27:00,48.3,48.3,30.19,NE,48,0.0,0.0,100,0.00,,,0.00,Wunderground v.1.15,2013-04-26 16:27:00,
2013-04-26 09:37:00,49.1,49.1,30.19,NE,42,0.0,0.0,100,0.00,,,0.00,Wunderground v.1.15,2013-04-26 16:37:00,
2013-04-26 09:42:00,49.5,49.5,30.19,NE,42,0.0,0.0,100,0.00,,,0.00,Wunderground v.1.15,2013-04-26 16:42:00,
2013-04-26 09:52:00,50.4,50.4,30.19,NE,45,0.0,0.0,100,0.00,,,0.00,Wunderground v.1.15,2013-04-26 16:52:00,
2013-04-26 10:02:00,51.9,51.9,30.18,NE,45,0.0,0.0,100,0.00,,,0.00,Wunderground v.1.15,2013-04-26 17:02:00,
2013-04-26 10:12:00,52.9,52.9,30.18,NNE,13,0.0,0.0,100,0.00,,,0.00,Wunderground v.1.15,2013-04-26 17:12:00,
2013-04-26 10:22:00,53.5,53.5,30.18,ENE,76,0.0,0.0,100,0.00,,,0.00,Wunderground v.1.15,2013-04-26 17:22:00,
2013-04-26 10:32:00,53.9,53.9,30.18,WSW,248,0.0,0.0,100,0.00,,,0.00,Wunderground v.1.15,2013-04-26 17:32:00,
2013-04-26 10:37:00,54.2,51.9,30.18,SW,234,0.0,0.0,92,0.00,,,0.00,Wunderground v.1.15,2013-04-26 17:37:00,
2013-04-26 10:47:00,53.2,52.9,30.19,WSW,244,0.0,0.0,99,0.00,,,0.00,Wunderground v.1.15,2013-04-26 17:47:00,
2013-04-26 10:57:00,54.1,51.2,30.19,SW,230,0.0,0.0,90,0.00,,,0.00,Wunderground v.1.15,2013-04-26 17:57:00,
2013-04-26 11:07:00,54.8,51.0,30.18,WSW,239,0.0,0.0,87,0.00,,,0.00,Wunderground v.1.15,2013-04-26 18:07:00,
2013-04-26 11:17:00,57.8,51.0,30.18,SW,236,0.0,0.0,78,0.00,,,0.00,Wunderground v.1.15,2013-04-26 18:17:00,
2013-04-26 11:27:00,61.3,49.4,30.18,SW,219,0.0,0.0,65,0.00,,,0.00,Wunderground v.1.15,2013-04-26 18:27:00,
2013-04-26 11:37:00,62.7,48.6,30.18,South,178,0.0,0.0,60,0.00,,,0.00,Wunderground v.1.15,2013-04-26 18:37:00,
2013-04-26 11:47:00,63.7,48.6,30.18,SSE,164,0.0,0.0,58,0.00,,,0.00,Wunderground v.1.15,2013-04-26 18:47:00,
2013-04-26 11:52:00,64.5,48.4,30.18,SSE,164,0.0,0.0,56,0.00,,,0.00,Wunderground v.1.15,2013-04-26 18:52:00,
2013-04-26 12:02:00,65.6,48.0,30.17,SSE,162,0.0,0.0,53,0.00,,,0.00,Wunderground v.1.15,2013-04-26 19:02:00,
2013-04-26 12:07:00,66.1,47.4,30.17,SSE,162,0.0,0.0,51,0.00,,,0.00,Wunderground v.1.15,2013-04-26 19:07:00,
2013-04-26 12:17:00,67.1,45.6,30.17,SSE,162,0.0,0.0,46,0.00,,,0.00,Wunderground v.1.15,2013-04-26 19:17:00,
2013-04-26 12:22:00,68.1,44.7,30.17,SSE,161,0.0,0.0,43,0.00,,,0.00,Wunderground v.1.15,2013-04-26 19:22:00,
2013-04-26 12:32:00,68.4,42.5,30.16,SSE,161,0.0,0.0,39,0.00,,,0.00,Wunderground v.1.15,2013-04-26 19:32:00,
2013-04-26 12:42:00,69.8,39.4,30.16,SSE,161,0.0,0.0,33,0.00,,,0.00,Wunderground v.1.15,2013-04-26 19:42:00,
2013-04-26 12:47:00,70.3,39.8,30.16,SSE,161,0.0,0.0,33,0.00,,,0.00,Wunderground v.1.15,2013-04-26 19:47:00,
2013-04-26 12:57:00,70.8,38.7,30.16,SSE,161,0.0,0.0,31,0.00,,,0.00,Wunderground v.1.15,2013-04-26 19:57:00,
2013-04-26 13:07:00,70.6,39.3,30.16,South,175,0.0,0.0,32,0.00,,,0.00,Wunderground v.1.15,2013-04-26 20:07:00,
2013-04-26 13:12:00,70.6,41.6,30.16,South,175,0.0,0.0,35,0.00,,,0.00,Wunderground v.1.15,2013-04-26 20:12:00,
2013-04-26 13:22:00,70.1,33.6,30.16,West,275,0.0,0.0,26,0.00,,,0.00,Wunderground v.1.15,2013-04-26 20:22:00,
2013-04-26 13:27:00,70.6,26.3,30.16,West,275,0.0,0.0,19,0.00,,,0.00,Wunderground v.1.15,2013-04-26 20:27:00,
2013-04-26 13:37:00,72.3,35.5,30.16,WSW,246,0.0,0.0,26,0.00,,,0.00,Wunderground v.1.15,2013-04-26 20:37:00,
2013-04-26 13:47:00,71.6,36.8,30.16,WSW,237,1.0,1.0,28,0.00,,,0.00,Wunderground v.1.15,2013-04-26 20:47:00,
2013-04-26 13:52:00,71.6,37.6,30.16,WNW,295,1.0,2.0,29,0.00,,,0.00,Wunderground v.1.15,2013-04-26 20:52:00,
2013-04-26 14:02:00,70.9,37.9,30.16,West,281,1.0,1.0,30,0.00,,,0.00,Wunderground v.1.15,2013-04-26 21:02:00,
2013-04-26 14:12:00,71.1,41.3,30.16,WSW,240,1.0,1.0,34,0.00,,,0.00,Wunderground v.1.15,2013-04-26 21:12:00,
2013-04-26 14:22:00,72.0,35.2,30.15,WNW,292,1.0,4.0,26,0.00,,,0.00,Wunderground v.1.15,2013-04-26 21:22:00,
2013-04-26 14:32:00,72.0,37.1,30.14,WSW,254,2.0,2.0,28,0.00,,,0.00,Wunderground v.1.15,2013-04-26 21:32:00,
2013-04-26 14:37:00,72.5,32.6,30.14,NW,311,2.0,2.0,23,0.00,,,0.00,Wunderground v.1.15,2013-04-26 21:37:00,
2013-04-26 14:47:00,73.7,37.6,30.14,West,271,1.0,1.0,27,0.00,,,0.00,Wunderground v.1.15,2013-04-26 21:47:00,
2013-04-26 14:57:00,73.3,34.3,30.14,NW,318,2.0,2.0,24,0.00,,,0.00,Wunderground v.1.15,2013-04-26 21:57:00,
2013-04-26 15:02:00,73.2,35.2,30.14,West,281,2.0,2.0,25,0.00,,,0.00,Wunderground v.1.15,2013-04-26 22:02:00,
2013-04-26 15:07:00,73.3,35.3,30.14,WNW,296,3.0,8.0,25,0.00,,,0.00,Wunderground v.1.15,2013-04-26 22:07:00,
2013-04-26 15:17:00,74.2,32.9,30.14,West,275,2.0,3.0,22,0.00,,,0.00,Wunderground v.1.15,2013-04-26 22:17:00,
2013-04-26 15:22:00,74.2,30.5,30.14,NW,323,2.0,3.0,20,0.00,,,0.00,Wunderground v.1.15,2013-04-26 22:22:00,
2013-04-26 15:32:00,74.2,32.9,30.13,WNW,285,3.0,3.0,22,0.00,,,0.00,Wunderground v.1.15,2013-04-26 22:32:00,
2013-04-26 15:37:00,74.4,35.2,30.13,WNW,294,3.0,3.0,24,0.00,,,0.00,Wunderground v.1.15,2013-04-26 22:37:00,
2013-04-26 15:47:00,74.6,34.3,30.13,NW,308,3.0,5.0,23,0.00,,,0.00,Wunderground v.1.15,2013-04-26 22:47:00,
2013-04-26 15:57:00,75.1,35.8,30.13,WNW,292,2.0,6.0,24,0.00,,,0.00,Wunderground v.1.15,2013-04-26 22:57:00,
2013-04-26 16:02:00,75.3,36.0,30.13,WSW,257,2.0,2.0,24,0.00,,,0.00,Wunderground v.1.15,2013-04-26 23:02:00,
2013-04-26 16:07:00,75.3,37.0,30.13,WNW,298,2.0,2.0,25,0.00,,,0.00,Wunderground v.1.15,2013-04-26 23:07:00,
2013-04-26 16:17:00,75.6,35.2,30.13,SSW,209,2.0,2.0,23,0.00,,,0.00,Wunderground v.1.15,2013-04-26 23:17:00,
2013-04-26 16:22:00,75.6,32.9,30.13,WNW,296,3.0,3.0,21,0.00,,,0.00,Wunderground v.1.15,2013-04-26 23:22:00,
2013-04-26 16:32:00,74.9,35.7,30.12,WNW,292,4.0,4.0,24,0.00,,,0.00,Wunderground v.1.15,2013-04-26 23:32:00,
2013-04-26 16:42:00,75.4,36.1,30.12,WNW,289,2.0,2.0,24,0.00,,,0.00,Wunderground v.1.15,2013-04-26 23:42:00,
2013-04-26 16:47:00,75.3,37.0,30.11,West,268,3.0,3.0,25,0.00,,,0.00,Wunderground v.1.15,2013-04-26 23:47:00,
2013-04-26 17:07:00,75.4,36.1,30.11,WSW,240,2.0,2.0,24,0.00,,,0.00,Wunderground v.1.15,2013-04-27 00:07:00,
2013-04-26 17:17:00,75.4,35.0,30.11,WSW,250,2.0,5.0,23,0.00,,,0.00,Wunderground v.1.15,2013-04-27 00:17:00,
2013-04-26 17:27:00,75.1,34.8,30.11,WNW,301,2.0,2.0,23,0.00,,,0.00,Wunderground v.1.15,2013-04-27 00:27:00,
2013-04-26 17:37:00,74.6,37.4,30.10,WNW,301,4.0,4.0,26,0.00,,,0.00,Wunderground v.1.15,2013-04-27 00:37:00,
2013-04-26 17:42:00,74.4,36.3,30.10,WNW,287,4.0,4.0,25,0.00,,,0.00,Wunderground v.1.15,2013-04-27 00:42:00,
2013-04-26 17:52:00,74.7,37.5,30.10,NW,304,2.0,2.0,26,0.00,,,0.00,Wunderground v.1.15,2013-04-27 00:52:00,
2013-04-26 17:57:00,74.4,36.3,30.10,WNW,294,3.0,3.0,25,0.00,,,0.00,Wunderground v.1.15,2013-04-27 00:57:00,
2013-04-26 18:07:00,74.6,36.4,30.10,West,272,3.0,6.0,25,0.00,,,0.00,Wunderground v.1.15,2013-04-27 01:07:00,
2013-04-26 18:12:00,73.5,36.5,30.10,West,268,4.0,7.0,26,0.00,,,0.00,Wunderground v.1.15,2013-04-27 01:12:00,
2013-04-26 18:22:00,73.0,36.1,30.10,West,267,5.0,7.0,26,0.00,,,0.00,Wunderground v.1.15,2013-04-27 01:22:00,
2013-04-26 18:27:00,72.8,35.9,30.10,NW,305,6.0,7.0,26,0.00,,,0.00,Wunderground v.1.15,2013-04-27 01:27:00,
2013-04-26 18:37:00,72.3,37.4,30.10,WNW,282,5.0,6.0,28,0.00,,,0.00,Wunderground v.1.15,2013-04-27 01:37:00,
2013-04-26 18:47:00,72.0,38.9,30.10,WNW,282,6.0,10.0,30,0.00,,,0.00,Wunderground v.1.15,2013-04-27 01:47:00,
2013-04-26 18:57:00,71.5,36.7,30.10,NW,312,5.0,10.0,28,0.00,,,0.00,Wunderground v.1.15,2013-04-27 01:57:00,
2013-04-26 19:07:00,70.9,35.2,30.11,West,265,5.0,12.0,27,0.00,,,0.00,Wunderground v.1.15,2013-04-27 02:07:00,
2013-04-26 19:17:00,70.4,34.8,30.11,NW,326,5.0,5.0,27,0.00,,,0.00,Wunderground v.1.15,2013-04-27 02:17:00,
2013-04-26 19:27:00,69.8,35.2,30.11,SW,230,3.0,5.0,28,0.00,,,0.00,Wunderground v.1.15,2013-04-27 02:27:00,
2013-04-26 19:32:00,69.1,33.7,30.11,NW,304,3.0,3.0,27,0.00,,,0.00,Wunderground v.1.15,2013-04-27 02:32:00,
2013-04-26 19:42:00,68.6,33.3,30.11,West,263,2.0,2.0,27,0.00,,,0.00,Wunderground v.1.15,2013-04-27 02:42:00,
2013-04-26 19:52:00,67.4,32.2,30.12,West,265,3.0,3.0,27,0.00,,,0.00,Wunderground v.1.15,2013-04-27 02:52:00,
2013-04-26 19:57:00,67.3,32.1,30.12,WNW,294,2.0,3.0,27,0.00,,,0.00,Wunderground v.1.15,2013-04-27 02:57:00,
2013-04-26 20:07:00,66.4,32.3,30.13,SSW,193,2.0,2.0,28,0.00,,,0.00,Wunderground v.1.15,2013-04-27 03:07:00,
2013-04-26 20:17:00,66.1,32.0,30.13,WNW,295,0.0,1.0,28,0.00,,,0.00,Wunderground v.1.15,2013-04-27 03:17:00,
2013-04-26 20:27:00,65.5,32.4,30.13,NW,306,0.0,1.0,29,0.00,,,0.00,Wunderground v.1.15,2013-04-27 03:27:00,
2013-04-26 20:32:00,65.0,32.8,30.13,West,274,0.0,0.0,30,0.00,,,0.00,Wunderground v.1.15,2013-04-27 03:32:00,
2013-04-26 20:42:00,64.2,33.7,30.13,SW,226,0.0,2.0,32,0.00,,,0.00,Wunderground v.1.15,2013-04-27 03:42:00,
2013-04-26 20:52:00,63.1,35.7,30.14,SW,223,2.0,2.0,36,0.00,,,0.00,Wunderground v.1.15,2013-04-27 03:52:00,
2013-04-26 20:57:00,62.4,35.8,30.14,WSW,248,1.0,2.0,37,0.00,,,0.00,Wunderground v.1.15,2013-04-27 03:57:00,
2013-04-26 21:02:00,62.4,35.8,30.14,West,274,1.0,1.0,37,0.00,,,0.00,Wunderground v.1.15,2013-04-27 04:02:00,
2013-04-26 21:07:00,62.3,35.7,30.14,SSW,209,0.0,1.0,37,0.00,,,0.00,Wunderground v.1.15,2013-04-27 04:07:00,
2013-04-26 21:12:00,62.3,36.4,30.14,West,281,0.0,0.0,38,0.00,,,0.00,Wunderground v.1.15,2013-04-27 04:12:00,
2013-04-26 21:17:00,62.0,36.7,30.14,West,281,0.0,0.0,39,0.00,,,0.00,Wunderground v.1.15,2013-04-27 04:17:00,
2013-04-26 21:22:00,61.5,36.9,30.14,West,270,0.0,0.0,40,0.00,,,0.00,Wunderground v.1.15,2013-04-27 04:22:00,
2013-04-26 21:32:00,60.5,36.7,30.15,West,260,1.0,1.0,41,0.00,,,0.00,Wunderground v.1.15,2013-04-27 04:32:00,
2013-04-26 21:42:00,59.9,37.3,30.15,West,265,0.0,0.0,43,0.00,,,0.00,Wunderground v.1.15,2013-04-27 04:42:00,
2013-04-26 21:47:00,59.8,37.2,30.15,West,265,0.0,0.0,43,0.00,,,0.00,Wunderground v.1.15,2013-04-27 04:47:00,
2013-04-26 21:57:00,59.0,36.5,30.15,SW,224,0.0,0.0,43,0.00,,,0.00,Wunderground v.1.15,2013-04-27 04:57:00,
2013-04-26 22:07:00,58.4,36.6,30.15,SW,227,0.0,5.0,44,0.00,,,0.00,Wunderground v.1.15,2013-04-27 05:07:00,
2013-04-26 22:17:00,58.1,36.9,30.16,SW,229,0.0,0.0,45,0.00,,,0.00,Wunderground v.1.15,2013-04-27 05:17:00,
2013-04-26 22:27:00,57.6,37.0,30.16,SW,215,0.0,0.0,46,0.00,,,0.00,Wunderground v.1.15,2013-04-27 05:27:00,
2013-04-26 22:37:00,57.2,36.6,30.16,SW,216,0.0,0.0,46,0.00,,,0.00,Wunderground v.1.15,2013-04-27 05:37:00,
2013-04-26 22:42:00,57.0,36.4,30.16,SW,216,0.0,0.0,46,0.00,,,0.00,Wunderground v.1.15,2013-04-27 05:42:00,
2013-04-26 22:52:00,56.9,36.3,30.16,SW,216,0.0,0.0,46,0.00,,,0.00,Wunderground v.1.15,2013-04-27 05:52:00,
2013-04-26 23:02:00,56.7,36.1,30.17,SW,216,0.0,5.0,46,0.00,,,0.00,Wunderground v.1.15,2013-04-27 06:02:00,
2013-04-26 23:07:00,56.5,36.5,30.17,SW,220,0.0,5.0,47,0.00,,,0.00,Wunderground v.1.15,2013-04-27 06:07:00,
2013-04-26 23:17:00,55.9,37.5,30.17,WSW,254,0.0,0.0,50,0.00,,,0.00,Wunderground v.1.15,2013-04-27 06:17:00,
2013-04-26 23:22:00,55.6,37.7,30.17,WSW,253,0.0,0.0,51,0.00,,,0.00,Wunderground v.1.15,2013-04-27 06:22:00,
2013-04-26 23:32:00,54.5,38.7,30.17,WSW,237,0.0,0.0,55,0.00,,,0.00,Wunderground v.1.15,2013-04-27 06:32:00,
2013-04-26 23:42:00,54.1,38.7,30.17,West,267,0.0,0.0,56,0.00,,,0.00,Wunderground v.1.15,2013-04-27 06:42:00,
2013-04-26 23:52:00,53.8,39.4,30.16,West,267,0.0,0.0,58,0.00,,,0.00,Wunderground v.1.15,2013-04-27 06:52:00,
2013-04-26 23:57:00,53.2,40.1,30.16,West,267,0.0,0.0,61,0.00,,,0.00,Wunderground v.1.15,2013-04-27 06:57:00,